STARLINK-34516

Last updated on Sat Jul 19 2025 00:02:07 GMT+0000 (Coordinated Universal Time)

1 64605U 25137M 25199.58335648 -.01535523 00000+0 -16365-1 0 9994 2 64605 53.1595 355.2763 0000985 106.7643 277.4941 15.66251330 4854
UTC large
Height (km)
Speed (km/s)
/
Latitude / Longitude
Inclination (degrees)
Orbital Period (minutes)
Azimuth
Elevation
Range (km)
Doppler Factor

Next 0 passes for location: London (51.5072 / 0.1276)

Sorry there are no passes over London.